Regional Weather Roundup
Issued by NWS Northern Indiana

Home | Current Version | Previous Version | Text Only | Print | Product List | Glossary Off
Versions: 1 2 3 4 5 6 7 8 9 10 11 12 13 14 15 16 17 18 19 20 21 22 23 24 25 26 27 28 29 30 31 32 33 34 35 36 37 38 39 40 41 42 43 44 45 46 47 48 49 50

000
ASUS43 KIWX 031210
RWRIWX

KIWX WEATHER ROUNDUP
NATIONAL WEATHER SERVICE NORTHERN INDIANA
800 AM EDT THU SEP 03 2015

NOTE: "FAIR" INDICATES FEW OR NO CLOUDS BELOW 12,000 FEET WITH NO
SIGNIFICANT WEATHER AND/OR OBSTRUCTIONS TO VISIBILITY.

* THESE STATIONS ARE NOT UNDER NWS QUALITY CONTROL. THEY ALSO MAY NOT
  REPORT WEATHER SUCH AS PRECIPITATION OR FOG.

INZ001>027-031300-
NORTHERN INDIANA

CITY           SKY/WX    TMP DP  RH WIND       PRES   REMARKS
GARY*          CLEAR     73  66  78 S5        29.98R
VALPARAISO     CLEAR     71  68  90 SW3       30.00R FOG
6HR MIN TEMP:  69; 6HR MAX TEMP:  74;

MICHIGAN CITY* CLEAR     72  64  78 S5        29.98S
LAPORTE*       CLEAR    N/A N/A N/A SW3       30.00R FOG
KNOX*          CLEAR     68  68 100 S6        29.99R
SOUTH BEND     CLEAR     70  68  93 SW5       29.99S
6HR MIN TEMP:  70; 6HR MAX TEMP:  74;

ELKHART*       CLEAR     68  68 100 CALM      29.99S
GOSHEN         CLEAR     70  67  90 CALM      29.99S FOG
6HR MIN TEMP:  69; 6HR MAX TEMP:  73;

MONTICELLO*    CLEAR     69  69 100 S3        30.01R
6HR MIN TEMP:  69; 6HR MAX TEMP:  74;

LOGANSPORT*    PTCLDY    68  63  83 S3        30.03S FOG
ROCHESTER*     CLEAR     73  70  88 SW3       30.02R
WARSAW*        CLEAR     70  68  94 CALM      30.01S
ANGOLA*        CLEAR     70  61  73 S3        30.00S
FORT WAYNE     PTCLDY    70  67  90 SW6       30.02S FOG
6HR MIN TEMP:  68; 6HR MAX TEMP:  72;

HUNTINGTON*    CLEAR     69  65  86 SW3       30.02R
6HR MIN TEMP:  67; 6HR MAX TEMP:  73;

PERU/GRISSOM   CLEAR     69  66  91 SW2       30.02R
6HR MIN TEMP:  69; 6HR MAX TEMP:  71;

MARION*        CLEAR     67  61  81 CALM      30.04R
6HR MIN TEMP:  49; 6HR MAX TEMP:  89;


$$
INZ028>050-031300-
CENTRAL INDIANA

CITY           SKY/WX    TMP DP  RH WIND       PRES   REMARKS
LAFAYETTE      PTCLDY    68  67  96 CALM      30.02R
6HR MIN TEMP:  66; 6HR MAX TEMP:  70;

KOKOMO*        CLEAR     68  63  83 CALM      30.03R
6HR MIN TEMP:  66; 6HR MAX TEMP:  72;

MUNCIE*        CLEAR     70  67  90 SW3       30.04R
6HR MIN TEMP:  66; 6HR MAX TEMP:  72;

INDIANAPOLIS   PTCLDY    70  67  90 S5        30.04R
6HR MIN TEMP:  69; 6HR MAX TEMP:  74;


$$
MIZ043>046-050>051-056>058-064>065-071>073-077>080-031300-
SOUTHWEST LOWER MICHIGAN

CITY           SKY/WX    TMP DP  RH WIND       PRES   REMARKS
BATTLE CREEK   CLEAR     71  67  87 S6        29.98S FOG
6HR MIN TEMP:  69; 6HR MAX TEMP:  76;

BENTON HARBOR  CLEAR     70  67  90 CALM      29.96S FOG
6HR MIN TEMP:  68; 6HR MAX TEMP:  72;

COLDWATER*     CLEAR     71  69  93 CALM      29.99S FOG
6HR MIN TEMP:  67; 6HR MAX TEMP:  71;

HILLSDALE*     PTCLDY    71  71  99 CALM      30.01S
6HR MIN TEMP:  67; 6HR MAX TEMP:  73;

HOLLAND        PTCLDY    74  69  85 SW8       29.94F
6HR MIN TEMP:  68; 6HR MAX TEMP:  74;

GRAND RAPIDS   MOCLDY    71  70  96 S5        29.95S FOG
6HR MIN TEMP:  70; 6HR MAX TEMP:  76; 6HR PCP: TRACE;

KALAMAZOO      CLEAR     71  67  87 SW6       29.98R
6HR MIN TEMP:  69; 6HR MAX TEMP:  72;

STURGIS*       CLEAR     68  66  94 CALM      29.99S FOG
THREE RIVERS*  FAIR      69  69 100 CALM      29.98S FOG
6HR MIN TEMP:  66; 6HR MAX TEMP:  70;


$$
OHZ001>008-015>018-024>025-031300-
NORTHWEST OHIO

CITY           SKY/WX    TMP DP  RH WIND       PRES   REMARKS
WAUSEON*       FAIR      72  72 100 W6        30.00S FOG
DEFIANCE       PTCLDY    71  67  87 CALM      30.01R
6HR MIN TEMP:  69; 6HR MAX TEMP:  74;

FINDLAY        CLEAR     70  67  90 SW3       30.00S
6HR MIN TEMP:  68; 6HR MAX TEMP:  72;

TOLEDO EXPRESS PTCLDY    69  67  93 CALM      29.99S
6HR MIN TEMP:  68; 6HR MAX TEMP:  73;

TOLEDO METCALF PTCLDY    71  66  84 SW5       30.00R
6HR MIN TEMP:  69; 6HR MAX TEMP:  73;

LIMA           PTCLDY    70  68  93 SW3       30.03R FOG
6HR MIN TEMP:  69; 6HR MAX TEMP:  70;


$$
AND FOR LAKE MICHIGAN COASTAL AND OPEN LAKE BUOY OBSERVATIONS

STATION/POSITION TEMP    WIND        PRES    VSBY  WAVE
                 AIR SEA DIR/SP/G                  HT/PER
                 (F)     (DEG/KT/KT) (MB)    (MI)  (FT/S)
CALUMET HARBOR    74     210/  4/  6   N/A
MICHIGAN CITY     74     180/ 10/ 12   N/A
BURNS HARBOR      74     180/  7/ 10 1015.2S
SAINT JOSEPH      76     180/  7/ 11 1014.9S
SOUTH LAKE BUOY   73 71  210/ 10/ 12 1012.8R         1
4 MI NW BRIDGMAN  75 73  250/  8/ 10   N/A           1/ 2
MICHIGAN CITY     74 73  220/  8/ 10   N/A           1/ 2

$$
&&


USA.gov is the U.S. government's official web portal to all federal, state and local government web resources and services.